Time,TemperatureF,DewpointF,PressureIn,WindDirection,WindDirectionDegrees,WindSpeedMPH,WindSpeedGustMPH,Humidity,HourlyPrecipIn,Conditions,Clouds,dailyrainin,SoftwareType,DateUTC
2013-07-09 00:04:00,74.7,70.2,29.06,NE,45,0.0,0.0,86,0.50,,---,0.00,VWS V14.00,2013-07-09 04:04:00,
2013-07-09 00:07:00,74.7,70.5,29.06,NE,45,0.0,0.0,87,0.50,,---,0.00,VWS V14.00,2013-07-09 04:07:00,
2013-07-09 00:10:00,74.5,70.4,29.06,NE,45,0.0,0.0,87,0.54,,---,0.04,VWS V14.00,2013-07-09 04:10:00,
2013-07-09 00:13:00,74.5,70.4,29.06,ENE,68,0.0,0.0,87,0.54,,---,0.04,VWS V14.00,2013-07-09 04:13:00,
2013-07-09 00:19:00,74.3,70.2,29.06,NW,315,0.0,0.0,87,0.54,,---,0.04,VWS V14.00,2013-07-09 04:19:00,
2013-07-09 00:22:00,74.1,70.0,29.06,NW,315,0.0,0.0,87,0.59,,---,0.09,VWS V14.00,2013-07-09 04:22:00,
2013-07-09 00:28:00,73.9,70.2,29.06,ESE,112,0.0,0.0,88,0.59,,---,0.09,VWS V14.00,2013-07-09 04:28:00,
2013-07-09 00:34:00,73.8,70.0,29.06,ESE,112,0.0,0.0,88,0.63,,---,0.13,VWS V14.00,2013-07-09 04:34:00,
2013-07-09 00:40:00,73.8,70.0,29.06,ESE,112,0.0,0.0,88,0.63,,---,0.13,VWS V14.00,2013-07-09 04:40:00,
2013-07-09 00:46:00,73.6,70.1,29.06,East,90,0.0,0.0,89,0.67,,---,0.17,VWS V14.00,2013-07-09 04:46:00,
2013-07-09 00:52:00,73.6,70.1,29.06,NE,45,0.0,0.0,89,0.67,,---,0.17,VWS V14.00,2013-07-09 04:52:00,
2013-07-09 00:58:00,73.8,70.7,29.06,NE,45,0.0,0.0,90,0.67,,---,0.17,VWS V14.00,2013-07-09 04:58:00,
2013-07-09 01:04:00,73.8,70.7,29.06,WSW,248,0.0,0.0,90,0.00,,---,0.17,VWS V14.00,2013-07-09 05:04:00,
2013-07-09 01:10:00,73.6,70.8,29.03,WNW,292,0.0,0.0,91,0.04,,---,0.21,VWS V14.00,2013-07-09 05:10:00,
2013-07-09 01:16:00,73.6,70.5,29.03,WSW,248,0.0,0.0,90,0.04,,---,0.21,VWS V14.00,2013-07-09 05:16:00,
2013-07-09 01:22:00,73.6,70.5,29.03,WNW,292,1.1,1.1,90,0.04,,---,0.21,VWS V14.00,2013-07-09 05:22:00,
2013-07-09 01:28:00,73.4,70.3,29.03,WNW,292,0.0,1.1,90,0.04,,---,0.21,VWS V14.00,2013-07-09 05:28:00,
2013-07-09 01:34:00,73.6,70.8,29.06,WNW,292,0.0,1.1,91,0.04,,---,0.21,VWS V14.00,2013-07-09 05:34:00,
2013-07-09 01:40:00,73.4,70.6,29.06,West,270,0.0,1.1,91,0.04,,---,0.21,VWS V14.00,2013-07-09 05:40:00,
2013-07-09 01:46:00,73.4,70.6,29.06,West,270,0.0,1.1,91,0.04,,---,0.21,VWS V14.00,2013-07-09 05:46:00,
2013-07-09 01:52:00,73.4,70.6,29.06,WNW,292,0.0,1.1,91,0.04,,---,0.21,VWS V14.00,2013-07-09 05:52:00,
2013-07-09 01:58:00,73.4,70.9,29.06,NW,315,0.0,1.1,92,0.04,,---,0.21,VWS V14.00,2013-07-09 05:58:00,
2013-07-09 02:04:00,73.4,70.9,29.06,NW,315,0.0,0.0,92,0.04,,---,0.21,VWS V14.00,2013-07-09 06:04:00,
2013-07-09 02:10:00,73.6,71.1,29.06,NW,315,0.0,0.0,92,0.04,,---,0.21,VWS V14.00,2013-07-09 06:10:00,
2013-07-09 02:16:00,73.4,70.9,29.03,NW,315,0.0,0.0,92,0.04,,---,0.21,VWS V14.00,2013-07-09 06:16:00,
2013-07-09 02:22:00,73.4,71.3,29.03,WNW,292,0.0,0.0,93,0.04,,---,0.21,VWS V14.00,2013-07-09 06:22:00,
2013-07-09 02:28:00,73.4,71.3,29.03,WNW,292,0.0,0.0,93,0.04,,---,0.21,VWS V14.00,2013-07-09 06:28:00,
2013-07-09 02:34:00,73.4,70.9,29.03,West,270,0.0,0.0,92,0.04,,---,0.21,VWS V14.00,2013-07-09 06:34:00,
2013-07-09 02:40:00,73.2,71.1,29.03,West,270,0.0,0.0,93,0.04,,---,0.21,VWS V14.00,2013-07-09 06:40:00,
2013-07-09 02:46:00,73.2,71.4,29.03,West,270,0.0,0.0,94,0.04,,---,0.21,VWS V14.00,2013-07-09 06:46:00,
2013-07-09 02:52:00,73.4,71.3,29.03,WNW,292,0.0,0.0,93,0.04,,---,0.21,VWS V14.00,2013-07-09 06:52:00,
2013-07-09 02:58:00,73.4,71.6,29.03,WNW,292,0.0,0.0,94,0.04,,---,0.21,VWS V14.00,2013-07-09 06:58:00,
2013-07-09 03:04:00,73.4,71.6,29.03,NW,315,0.0,2.5,94,0.00,,---,0.21,VWS V14.00,2013-07-09 07:04:00,
2013-07-09 03:10:00,73.2,71.7,29.03,West,270,0.0,2.5,95,0.00,,---,0.21,VWS V14.00,2013-07-09 07:10:00,
2013-07-09 03:16:00,73.4,71.6,29.03,ENE,68,0.0,2.5,94,0.00,,---,0.21,VWS V14.00,2013-07-09 07:16:00,
2013-07-09 03:22:00,73.2,71.4,29.03,NNW,338,0.0,2.5,94,0.00,,---,0.21,VWS V14.00,2013-07-09 07:22:00,
2013-07-09 03:28:00,73.4,71.6,29.03,NW,315,0.0,2.5,94,0.00,,---,0.21,VWS V14.00,2013-07-09 07:28:00,
2013-07-09 03:34:00,73.4,71.6,29.03,NW,315,0.0,2.5,94,0.00,,---,0.21,VWS V14.00,2013-07-09 07:34:00,
2013-07-09 03:41:00,73.2,71.7,29.03,NW,315,0.0,2.5,95,0.00,,---,0.21,VWS V14.00,2013-07-09 07:41:00,
2013-07-09 03:47:00,73.2,71.7,29.03,NW,315,0.0,2.5,95,0.00,,---,0.21,VWS V14.00,2013-07-09 07:47:00,
2013-07-09 03:53:00,73.2,71.7,29.03,NW,315,0.0,2.5,95,0.00,,---,0.21,VWS V14.00,2013-07-09 07:53:00,
2013-07-09 03:59:00,73.2,71.7,29.03,NW,315,0.0,2.5,95,0.00,,---,0.21,VWS V14.00,2013-07-09 07:59:00,
2013-07-09 04:05:00,73.2,71.7,29.03,NW,315,0.0,0.0,95,0.00,,---,0.21,VWS V14.00,2013-07-09 08:05:00,
2013-07-09 04:11:00,73.2,71.7,29.03,NW,315,0.0,0.0,95,0.00,,---,0.21,VWS V14.00,2013-07-09 08:11:00,
2013-07-09 04:17:00,73.2,71.7,29.00,NW,315,0.0,0.0,95,0.00,,---,0.21,VWS V14.00,2013-07-09 08:17:00,
2013-07-09 04:23:00,73.0,71.5,29.00,NW,315,0.0,0.0,95,0.00,,---,0.21,VWS V14.00,2013-07-09 08:23:00,
2013-07-09 04:29:00,73.0,71.5,29.00,NW,315,0.0,0.0,95,0.00,,---,0.21,VWS V14.00,2013-07-09 08:29:00,
2013-07-09 04:35:00,73.0,71.5,29.00,NW,315,0.0,0.0,95,0.00,,---,0.21,VWS V14.00,2013-07-09 08:35:00,
2013-07-09 04:41:00,72.9,71.3,29.00,NW,315,0.0,0.0,95,0.00,,---,0.21,VWS V14.00,2013-07-09 08:41:00,
2013-07-09 04:47:00,73.0,71.5,29.00,NW,315,0.0,0.0,95,0.00,,---,0.21,VWS V14.00,2013-07-09 08:47:00,
2013-07-09 04:53:00,72.9,71.3,29.00,NW,315,0.0,0.0,95,0.00,,---,0.21,VWS V14.00,2013-07-09 08:53:00,
2013-07-09 04:59:00,72.9,71.3,29.00,NW,315,0.0,0.0,95,0.00,,---,0.21,VWS V14.00,2013-07-09 08:59:00,
2013-07-09 05:05:00,72.7,71.2,29.00,WNW,292,0.0,0.0,95,0.00,,---,0.21,VWS V14.00,2013-07-09 09:05:00,
2013-07-09 05:11:00,72.7,71.2,29.00,WNW,292,0.0,0.0,95,0.00,,---,0.21,VWS V14.00,2013-07-09 09:11:00,
2013-07-09 05:17:00,72.7,71.2,29.00,WNW,292,0.0,0.0,95,0.00,,---,0.21,VWS V14.00,2013-07-09 09:17:00,
2013-07-09 05:23:00,72.7,71.2,29.00,WNW,292,0.0,0.0,95,0.00,,---,0.21,VWS V14.00,2013-07-09 09:23:00,
2013-07-09 05:29:00,72.5,71.0,29.00,WNW,292,0.0,0.0,95,0.00,,---,0.21,VWS V14.00,2013-07-09 09:29:00,
2013-07-09 05:35:00,72.5,71.0,29.00,WNW,292,0.0,0.0,95,0.00,,---,0.21,VWS V14.00,2013-07-09 09:35:00,
2013-07-09 05:41:00,72.5,71.0,29.00,WNW,292,0.0,0.0,95,0.00,,---,0.21,VWS V14.00,2013-07-09 09:41:00,
2013-07-09 05:47:00,72.5,71.0,29.00,WNW,292,0.0,0.0,95,0.00,,---,0.21,VWS V14.00,2013-07-09 09:47:00,
2013-07-09 05:53:00,72.3,70.8,29.00,WNW,292,0.0,0.0,95,0.00,,---,0.21,VWS V14.00,2013-07-09 09:53:00,
2013-07-09 05:59:00,72.3,70.8,29.00,WNW,292,0.0,0.0,95,0.00,,---,0.21,VWS V14.00,2013-07-09 09:59:00,
2013-07-09 06:05:00,72.3,70.8,29.00,WNW,292,0.0,0.0,95,0.00,,---,0.21,VWS V14.00,2013-07-09 10:05:00,
2013-07-09 06:11:00,72.1,70.6,28.97,WNW,292,0.0,0.0,95,0.00,,---,0.21,VWS V14.00,2013-07-09 10:11:00,
2013-07-09 06:17:00,72.1,70.6,29.00,WNW,292,0.0,0.0,95,0.00,,---,0.21,VWS V14.00,2013-07-09 10:17:00,
2013-07-09 06:23:00,72.1,70.9,29.00,WNW,292,0.0,0.0,96,0.00,,---,0.21,VWS V14.00,2013-07-09 10:23:00,
2013-07-09 06:29:00,72.1,70.9,29.00,WNW,292,0.0,0.0,96,0.00,,---,0.21,VWS V14.00,2013-07-09 10:29:00,
2013-07-09 06:35:00,72.0,70.8,29.00,WNW,292,0.0,0.0,96,0.00,,---,0.21,VWS V14.00,2013-07-09 10:35:00,
2013-07-09 06:41:00,72.0,70.8,29.00,WNW,292,0.0,0.0,96,0.00,,---,0.21,VWS V14.00,2013-07-09 10:41:00,
2013-07-09 06:47:00,72.0,70.8,29.00,NW,315,0.9,0.9,96,0.00,,---,0.21,VWS V14.00,2013-07-09 10:47:00,
2013-07-09 06:53:00,72.0,70.8,29.00,ESE,112,0.0,0.9,96,0.00,,---,0.21,VWS V14.00,2013-07-09 10:53:00,
2013-07-09 06:59:00,72.0,70.8,29.00,SE,135,0.0,2.2,96,0.00,,---,0.21,VWS V14.00,2013-07-09 10:59:00,
2013-07-09 07:05:00,72.0,71.1,29.00,SSE,158,1.6,2.7,97,0.00,,---,0.21,VWS V14.00,2013-07-09 11:05:00,
2013-07-09 07:11:00,72.1,71.2,29.00,NW,315,0.0,2.7,97,0.00,,---,0.21,VWS V14.00,2013-07-09 11:11:00,
2013-07-09 07:17:00,72.1,71.2,29.03,NW,315,0.0,2.7,97,0.00,,---,0.21,VWS V14.00,2013-07-09 11:17:00,
2013-07-09 07:23:00,72.3,71.4,29.03,West,270,0.0,2.7,97,0.00,,---,0.21,VWS V14.00,2013-07-09 11:23:00,
2013-07-09 07:29:00,72.3,71.4,29.03,NW,315,0.0,2.7,97,0.00,,---,0.21,VWS V14.00,2013-07-09 11:29:00,
2013-07-09 07:35:00,72.3,71.7,29.03,North,0,0.0,2.7,98,0.00,,---,0.21,VWS V14.00,2013-07-09 11:35:00,
2013-07-09 07:41:00,72.5,71.9,29.03,NE,45,0.0,2.7,98,0.00,,---,0.21,VWS V14.00,2013-07-09 11:41:00,
2013-07-09 07:47:00,72.7,72.1,29.03,North,0,0.0,2.7,98,0.00,,---,0.21,VWS V14.00,2013-07-09 11:47:00,
2013-07-09 07:53:00,72.7,72.1,29.03,East,90,0.0,2.7,98,0.00,,---,0.21,VWS V14.00,2013-07-09 11:53:00,
2013-07-09 07:59:00,72.9,72.6,29.03,WNW,292,0.0,2.7,99,0.00,,---,0.21,VWS V14.00,2013-07-09 11:59:00,
2013-07-09 08:05:00,73.0,72.8,29.03,West,270,0.0,0.0,99,0.00,,---,0.21,VWS V14.00,2013-07-09 12:05:00,
2013-07-09 08:12:00,73.0,72.8,29.03,WNW,292,0.0,2.5,99,0.00,,---,0.21,VWS V14.00,2013-07-09 12:12:00,
2013-07-09 08:18:00,73.2,72.6,29.03,NW,315,0.0,2.5,98,0.00,,---,0.21,VWS V14.00,2013-07-09 12:18:00,
2013-07-09 08:24:00,73.2,72.6,29.03,NNW,338,0.0,2.5,98,0.00,,---,0.21,VWS V14.00,2013-07-09 12:24:00,
2013-07-09 08:30:00,73.2,72.6,29.03,ESE,112,0.0,2.5,98,0.00,,---,0.21,VWS V14.00,2013-07-09 12:30:00,
2013-07-09 08:36:00,73.4,72.8,29.03,West,270,0.0,2.5,98,0.00,,---,0.21,VWS V14.00,2013-07-09 12:36:00,
2013-07-09 08:42:00,73.6,72.7,29.03,WNW,292,0.0,2.5,97,0.00,,---,0.21,VWS V14.00,2013-07-09 12:42:00,
2013-07-09 08:48:00,73.8,72.9,29.03,WNW,292,0.0,2.5,97,0.00,,---,0.21,VWS V14.00,2013-07-09 12:48:00,
2013-07-09 08:54:00,74.1,73.2,29.03,WNW,292,0.0,2.5,97,0.00,,---,0.21,VWS V14.00,2013-07-09 12:54:00,
2013-07-09 09:00:00,74.5,73.6,29.03,WSW,248,0.0,2.5,97,0.00,,---,0.21,VWS V14.00,2013-07-09 13:00:00,
2013-07-09 09:06:00,74.7,73.4,29.03,WSW,248,0.0,0.0,96,0.00,,---,0.21,VWS V14.00,2013-07-09 13:06:00,
2013-07-09 09:12:00,74.7,73.4,29.03,WSW,248,0.0,0.0,96,0.00,,---,0.21,VWS V14.00,2013-07-09 13:12:00,
2013-07-09 09:18:00,74.8,73.6,29.03,SSW,202,0.0,0.0,96,0.00,,---,0.21,VWS V14.00,2013-07-09 13:18:00,
2013-07-09 09:24:00,74.8,73.6,29.03,SSW,202,0.0,0.0,96,0.00,,---,0.21,VWS V14.00,2013-07-09 13:24:00,
2013-07-09 09:30:00,75.2,73.7,29.03,SSW,202,0.0,0.0,95,0.00,,---,0.21,VWS V14.00,2013-07-09 13:30:00,
2013-07-09 09:36:00,75.4,73.5,29.03,West,270,0.0,0.0,94,0.00,,---,0.21,VWS V14.00,2013-07-09 13:36:00,
2013-07-09 09:42:00,75.9,74.1,29.03,NE,45,0.0,2.5,94,0.00,,---,0.21,VWS V14.00,2013-07-09 13:42:00,
2013-07-09 09:48:00,76.3,74.1,29.03,East,90,0.0,2.5,93,0.00,,---,0.21,VWS V14.00,2013-07-09 13:48:00,
2013-07-09 09:54:00,76.3,74.1,29.03,WSW,248,0.0,2.5,93,0.00,,---,0.21,VWS V14.00,2013-07-09 13:54:00,
2013-07-09 10:00:00,76.5,73.6,29.03,WSW,248,0.0,2.5,91,0.00,,---,0.21,VWS V14.00,2013-07-09 14:00:00,
2013-07-09 10:06:00,77.0,74.2,29.03,West,270,0.0,0.0,91,0.00,,---,0.21,VWS V14.00,2013-07-09 14:06:00,
2013-07-09 10:12:00,77.4,74.2,29.03,SSE,158,0.9,0.9,90,0.00,,---,0.21,VWS V14.00,2013-07-09 14:12:00,
2013-07-09 10:18:00,78.3,75.1,29.03,NNW,338,0.0,2.0,90,0.00,,---,0.21,VWS V14.00,2013-07-09 14:18:00,
2013-07-09 10:24:00,78.6,74.8,29.03,SE,135,0.0,2.0,88,0.00,,---,0.21,VWS V14.00,2013-07-09 14:24:00,
2013-07-09 10:30:00,79.0,74.4,29.03,East,90,1.1,2.0,86,0.00,,---,0.21,VWS V14.00,2013-07-09 14:30:00,
2013-07-09 10:36:00,79.5,75.0,29.03,East,90,0.0,2.0,86,0.00,,---,0.21,VWS V14.00,2013-07-09 14:36:00,
2013-07-09 10:42:00,79.7,74.8,29.03,WNW,292,0.0,2.0,85,0.00,,---,0.21,VWS V14.00,2013-07-09 14:42:00,
2013-07-09 10:48:00,80.4,75.5,29.03,NNW,338,0.9,2.0,85,0.00,,---,0.21,VWS V14.00,2013-07-09 14:48:00,
2013-07-09 10:54:00,81.0,75.7,29.03,NW,315,2.2,4.3,84,0.00,,---,0.21,VWS V14.00,2013-07-09 14:54:00,
2013-07-09 11:00:00,81.1,75.5,29.03,NW,315,0.0,4.3,83,0.00,,---,0.21,VWS V14.00,2013-07-09 15:00:00,
2013-07-09 11:06:00,81.7,75.7,29.03,SSE,158,0.0,2.0,82,0.00,,---,0.21,VWS V14.00,2013-07-09 15:06:00,
2013-07-09 11:12:00,81.9,75.8,29.03,West,270,2.7,3.4,82,0.00,,---,0.21,VWS V14.00,2013-07-09 15:12:00,
2013-07-09 11:18:00,82.6,75.4,29.03,West,270,0.0,3.6,79,0.00,,---,0.21,VWS V14.00,2013-07-09 15:18:00,
2013-07-09 11:24:00,82.8,75.2,29.03,WNW,292,0.0,3.6,78,0.00,,---,0.21,VWS V14.00,2013-07-09 15:24:00,
2013-07-09 11:30:00,82.9,75.4,29.03,East,90,0.0,3.6,78,0.00,,---,0.21,VWS V14.00,2013-07-09 15:30:00,
2013-07-09 11:36:00,82.8,74.8,29.03,SW,225,0.0,3.6,77,0.00,,---,0.21,VWS V14.00,2013-07-09 15:36:00,
2013-07-09 11:42:00,83.1,75.6,29.03,SE,135,0.0,3.6,78,0.00,,---,0.21,VWS V14.00,2013-07-09 15:42:00,
2013-07-09 11:48:00,83.1,75.2,29.03,ESE,112,0.0,3.6,77,0.00,,---,0.21,VWS V14.00,2013-07-09 15:48:00,
2013-07-09 11:54:00,83.7,75.7,29.03,East,90,0.0,3.6,77,0.00,,---,0.21,VWS V14.00,2013-07-09 15:54:00,
2013-07-09 12:00:00,83.8,75.5,29.03,SW,225,0.0,3.6,76,0.00,,---,0.21,VWS V14.00,2013-07-09 16:00:00,
2013-07-09 12:06:00,84.2,75.4,29.03,North,0,0.0,3.1,75,0.00,,---,0.21,VWS V14.00,2013-07-09 16:06:00,
2013-07-09 12:12:00,84.7,76.3,29.03,NNE,22,0.0,3.1,76,0.00,,---,0.21,VWS V14.00,2013-07-09 16:12:00,
2013-07-09 12:18:00,85.1,76.7,29.03,East,90,0.0,3.1,76,0.00,,---,0.21,VWS V14.00,2013-07-09 16:18:00,
2013-07-09 12:24:00,84.7,75.9,29.03,ENE,68,0.0,3.1,75,0.00,,---,0.21,VWS V14.00,2013-07-09 16:24:00,
2013-07-09 12:30:00,84.9,76.1,29.03,South,180,2.7,3.1,75,0.00,,---,0.21,VWS V14.00,2013-07-09 16:30:00,
2013-07-09 12:36:00,85.1,75.9,29.03,West,270,0.0,3.1,74,0.00,,---,0.21,VWS V14.00,2013-07-09 16:36:00,
2013-07-09 12:43:00,85.6,76.4,29.03,West,270,0.0,3.1,74,0.00,,---,0.21,VWS V14.00,2013-07-09 16:43:00,
2013-07-09 12:49:00,85.5,76.2,29.03,ESE,112,0.0,3.1,74,0.00,,---,0.21,VWS V14.00,2013-07-09 16:49:00,
2013-07-09 12:55:00,85.5,76.2,29.03,East,90,2.9,3.1,74,0.00,,---,0.21,VWS V14.00,2013-07-09 16:55:00,
2013-07-09 13:00:00,85.8,76.6,29.03,WNW,292,0.0,3.1,74,0.00,,---,0.21,VWS V14.00,2013-07-09 17:00:00,
2013-07-09 13:07:00,86.2,76.9,29.03,West,270,0.0,3.1,74,0.00,,---,0.21,VWS V14.00,2013-07-09 17:07:00,
2013-07-09 13:13:00,86.0,76.3,29.00,East,90,0.0,3.1,73,0.00,,---,0.21,VWS V14.00,2013-07-09 17:13:00,
2013-07-09 13:19:00,86.5,76.9,29.03,West,270,1.6,3.1,73,0.00,,---,0.21,VWS V14.00,2013-07-09 17:19:00,
2013-07-09 13:25:00,86.9,77.2,29.03,ESE,112,2.2,3.1,73,0.00,,---,0.21,VWS V14.00,2013-07-09 17:25:00,
2013-07-09 13:31:00,87.1,77.0,29.03,West,270,0.9,3.1,72,0.00,,---,0.21,VWS V14.00,2013-07-09 17:31:00,
2013-07-09 13:37:00,87.1,77.4,29.00,NE,45,0.0,3.1,73,0.00,,---,0.21,VWS V14.00,2013-07-09 17:37:00,
2013-07-09 13:43:00,86.9,77.2,29.00,North,0,0.0,3.6,73,0.00,,---,0.21,VWS V14.00,2013-07-09 17:43:00,
2013-07-09 13:49:00,87.1,76.5,29.00,South,180,0.0,3.6,71,0.00,,---,0.21,VWS V14.00,2013-07-09 17:49:00,
2013-07-09 13:55:00,87.3,77.1,29.00,NE,45,1.6,3.6,72,0.00,,---,0.21,VWS V14.00,2013-07-09 17:55:00,
2013-07-09 14:00:00,87.3,77.1,29.00,ESE,112,2.0,3.6,72,0.00,,---,0.21,VWS V14.00,2013-07-09 18:00:00,
2013-07-09 14:07:00,87.4,76.9,29.00,NNW,338,2.5,2.7,71,0.00,,---,0.21,VWS V14.00,2013-07-09 18:07:00,
2013-07-09 14:13:00,87.1,76.5,29.00,SE,135,0.0,2.7,71,0.00,,---,0.21,VWS V14.00,2013-07-09 18:13:00,
2013-07-09 14:19:00,87.3,76.7,29.00,NE,45,2.5,2.7,71,0.00,,---,0.21,VWS V14.00,2013-07-09 18:19:00,
2013-07-09 14:25:00,87.4,76.5,29.00,East,90,1.1,2.7,70,0.00,,---,0.21,VWS V14.00,2013-07-09 18:25:00,
2013-07-09 14:31:00,87.6,77.1,29.00,SE,135,2.0,2.9,71,0.00,,---,0.21,VWS V14.00,2013-07-09 18:31:00,
2013-07-09 14:37:00,88.0,77.0,29.00,NE,45,1.6,3.6,70,0.00,,---,0.21,VWS V14.00,2013-07-09 18:37:00,
2013-07-09 14:43:00,88.2,76.7,29.00,ENE,68,2.5,3.6,69,0.00,,---,0.21,VWS V14.00,2013-07-09 18:43:00,
2013-07-09 14:49:00,87.8,76.4,28.97,West,270,2.5,3.6,69,0.00,,---,0.21,VWS V14.00,2013-07-09 18:49:00,
2013-07-09 14:55:00,88.0,77.0,28.97,ESE,112,1.3,3.6,70,0.00,,---,0.21,VWS V14.00,2013-07-09 18:55:00,
2013-07-09 15:01:00,88.3,76.9,28.97,East,90,2.9,2.9,69,0.00,,---,0.21,VWS V14.00,2013-07-09 19:01:00,
2013-07-09 15:07:00,88.3,76.4,28.97,WSW,248,3.1,3.1,68,0.00,,---,0.21,VWS V14.00,2013-07-09 19:07:00,
2013-07-09 15:13:00,88.0,76.1,28.97,West,270,3.4,3.4,68,0.00,,---,0.21,VWS V14.00,2013-07-09 19:13:00,
2013-07-09 15:19:00,88.0,76.1,28.97,WNW,292,0.9,4.9,68,0.00,,---,0.21,VWS V14.00,2013-07-09 19:19:00,
2013-07-09 15:25:00,87.8,75.9,28.97,East,90,0.0,4.9,68,0.00,,---,0.21,VWS V14.00,2013-07-09 19:25:00,
2013-07-09 15:31:00,88.0,75.7,28.97,SW,225,0.0,4.9,67,0.00,,---,0.21,VWS V14.00,2013-07-09 19:31:00,
2013-07-09 15:37:00,88.2,75.8,28.97,NW,315,0.0,4.9,67,0.00,,---,0.21,VWS V14.00,2013-07-09 19:37:00,
2013-07-09 15:43:00,88.2,76.3,28.97,East,90,1.3,4.9,68,0.00,,---,0.21,VWS V14.00,2013-07-09 19:43:00,
2013-07-09 15:49:00,87.8,75.9,28.97,NNE,22,0.0,4.9,68,0.00,,---,0.21,VWS V14.00,2013-07-09 19:49:00,
2013-07-09 15:55:00,87.4,76.0,28.97,East,90,0.0,4.9,69,0.00,,---,0.21,VWS V14.00,2013-07-09 19:55:00,
2013-07-09 16:01:00,87.4,76.5,28.97,East,90,0.0,0.0,70,0.00,,---,0.21,VWS V14.00,2013-07-09 20:01:00,
2013-07-09 16:07:00,87.3,76.3,28.97,West,270,0.0,2.0,70,0.00,,---,0.21,VWS V14.00,2013-07-09 20:07:00,
2013-07-09 16:13:00,87.3,75.8,28.97,East,90,0.0,2.0,69,0.00,,---,0.21,VWS V14.00,2013-07-09 20:13:00,
2013-07-09 16:19:00,87.6,76.2,28.94,NNW,338,0.0,2.2,69,0.00,,---,0.21,VWS V14.00,2013-07-09 20:19:00,
2013-07-09 16:25:00,87.8,76.4,28.94,SSE,158,2.2,2.2,69,0.00,,---,0.21,VWS V14.00,2013-07-09 20:25:00,
2013-07-09 16:31:00,87.6,75.8,28.97,SW,225,0.0,2.2,68,0.00,,---,0.21,VWS V14.00,2013-07-09 20:31:00,
2013-07-09 16:37:00,87.8,76.4,28.97,ESE,112,0.0,2.7,69,0.00,,---,0.21,VWS V14.00,2013-07-09 20:37:00,
2013-07-09 16:43:00,87.8,75.9,28.97,South,180,0.9,2.9,68,0.00,,---,0.21,VWS V14.00,2013-07-09 20:43:00,
2013-07-09 16:49:00,88.2,76.7,28.97,East,90,2.0,2.9,69,0.00,,---,0.21,VWS V14.00,2013-07-09 20:49:00,
2013-07-09 16:55:00,88.2,76.3,28.97,NE,45,1.6,2.9,68,0.00,,---,0.21,VWS V14.00,2013-07-09 20:55:00,
2013-07-09 17:01:00,88.2,76.3,28.94,NE,45,1.6,1.6,68,0.00,,---,0.21,VWS V14.00,2013-07-09 21:01:00,
2013-07-09 17:07:00,88.2,76.3,28.94,NNW,338,0.0,5.4,68,0.00,,---,0.21,VWS V14.00,2013-07-09 21:07:00,
2013-07-09 17:13:00,88.0,75.7,28.94,SE,135,2.9,5.4,67,0.00,,---,0.21,VWS V14.00,2013-07-09 21:13:00,
2013-07-09 17:20:00,87.8,75.5,28.94,West,270,0.0,5.4,67,0.00,,---,0.21,VWS V14.00,2013-07-09 21:20:00,
2013-07-09 17:26:00,87.4,75.6,28.94,WSW,248,0.0,5.4,68,0.00,,---,0.21,VWS V14.00,2013-07-09 21:26:00,
2013-07-09 17:32:00,87.3,75.8,28.94,WSW,248,0.0,5.4,69,0.00,,---,0.21,VWS V14.00,2013-07-09 21:32:00,
2013-07-09 17:38:00,87.1,76.5,28.94,West,270,0.0,5.4,71,0.00,,---,0.21,VWS V14.00,2013-07-09 21:38:00,
2013-07-09 17:44:00,86.9,76.8,28.94,West,270,0.0,5.4,72,0.00,,---,0.21,VWS V14.00,2013-07-09 21:44:00,
2013-07-09 17:50:00,86.5,76.9,28.94,WSW,248,0.0,5.4,73,0.00,,---,0.21,VWS V14.00,2013-07-09 21:50:00,
2013-07-09 17:56:00,86.0,76.8,28.94,ESE,112,0.0,5.4,74,0.00,,---,0.21,VWS V14.00,2013-07-09 21:56:00,
2013-07-09 18:02:00,85.6,76.4,28.94,WNW,292,0.0,0.0,74,0.00,,---,0.21,VWS V14.00,2013-07-09 22:02:00,
2013-07-09 18:08:00,85.1,75.9,28.94,ESE,112,0.0,2.7,74,0.00,,---,0.21,VWS V14.00,2013-07-09 22:08:00,
2013-07-09 18:14:00,84.7,75.1,28.94,SE,135,0.0,2.7,73,0.00,,---,0.21,VWS V14.00,2013-07-09 22:14:00,
2013-07-09 18:20:00,84.4,75.2,28.94,West,270,2.2,2.9,74,0.00,,---,0.21,VWS V14.00,2013-07-09 22:20:00,
2013-07-09 18:26:00,83.8,74.7,28.94,WNW,292,0.0,3.1,74,0.00,,---,0.21,VWS V14.00,2013-07-09 22:26:00,
2013-07-09 18:32:00,83.3,74.6,28.97,WNW,292,2.0,4.3,75,0.00,,---,0.21,VWS V14.00,2013-07-09 22:32:00,
2013-07-09 18:38:00,82.9,74.6,28.97,WNW,292,0.0,4.3,76,0.00,,---,0.21,VWS V14.00,2013-07-09 22:38:00,
2013-07-09 18:44:00,82.4,74.1,28.97,North,0,0.0,4.3,76,0.00,,---,0.21,VWS V14.00,2013-07-09 22:44:00,
2013-07-09 18:50:00,82.0,74.1,28.94,NE,45,0.0,4.3,77,0.00,,---,0.21,VWS V14.00,2013-07-09 22:50:00,
2013-07-09 18:56:00,81.7,74.2,28.94,East,90,0.0,4.3,78,0.04,,---,0.25,VWS V14.00,2013-07-09 22:56:00,
2013-07-09 19:02:00,81.3,73.8,28.94,North,0,0.0,2.2,78,0.04,,---,0.25,VWS V14.00,2013-07-09 23:02:00,
2013-07-09 19:08:00,81.0,73.8,28.94,NW,315,0.0,2.2,79,0.04,,---,0.25,VWS V14.00,2013-07-09 23:08:00,
2013-07-09 19:14:00,80.8,74.0,28.97,North,0,0.0,2.2,80,0.04,,---,0.25,VWS V14.00,2013-07-09 23:14:00,
2013-07-09 19:20:00,80.8,74.0,28.97,NW,315,0.0,2.2,80,0.04,,---,0.25,VWS V14.00,2013-07-09 23:20:00,
2013-07-09 19:26:00,80.4,73.7,28.97,North,0,0.0,2.2,80,0.04,,---,0.25,VWS V14.00,2013-07-09 23:26:00,
2013-07-09 19:32:00,80.6,73.9,28.97,East,90,0.0,2.2,80,0.04,,---,0.25,VWS V14.00,2013-07-09 23:32:00,
2013-07-09 19:38:00,80.2,73.5,28.97,East,90,0.0,2.2,80,0.04,,---,0.25,VWS V14.00,2013-07-09 23:38:00,
2013-07-09 19:44:00,79.9,72.8,28.97,East,90,0.0,2.2,79,0.04,,---,0.25,VWS V14.00,2013-07-09 23:44:00,
2013-07-09 19:50:00,79.9,72.8,28.97,WNW,292,0.0,2.2,79,0.04,,---,0.25,VWS V14.00,2013-07-09 23:50:00,
2013-07-09 19:56:00,79.7,73.0,28.97,South,180,0.9,3.6,80,0.04,,---,0.25,VWS V14.00,2013-07-09 23:56:00,
2013-07-09 20:02:00,79.5,72.4,28.97,ESE,112,0.0,0.0,79,0.00,,---,0.25,VWS V14.00,2013-07-10 00:02:00,
2013-07-09 20:08:00,79.2,72.1,28.97,NNW,338,0.0,0.0,79,0.00,,---,0.25,VWS V14.00,2013-07-10 00:08:00,
2013-07-09 20:14:00,79.2,72.8,28.97,NNW,338,0.0,0.0,81,0.00,,---,0.25,VWS V14.00,2013-07-10 00:14:00,
2013-07-09 20:20:00,78.8,72.1,28.94,ENE,68,0.0,0.0,80,0.00,,---,0.25,VWS V14.00,2013-07-10 00:20:00,
2013-07-09 20:26:00,78.4,71.4,28.94,East,90,0.0,0.0,79,0.00,,---,0.25,VWS V14.00,2013-07-10 00:26:00,
2013-07-09 20:32:00,78.3,71.6,28.97,WNW,292,0.0,0.0,80,0.00,,---,0.25,VWS V14.00,2013-07-10 00:32:00,
2013-07-09 20:38:00,77.9,71.2,28.97,WNW,292,0.0,0.0,80,0.00,,---,0.25,VWS V14.00,2013-07-10 00:38:00,
2013-07-09 20:44:00,77.9,71.6,28.97,West,270,0.0,0.0,81,0.00,,---,0.25,VWS V14.00,2013-07-10 00:44:00,
2013-07-09 20:50:00,77.7,71.4,28.97,West,270,0.0,0.0,81,0.00,,---,0.25,VWS V14.00,2013-07-10 00:50:00,
2013-07-09 20:56:00,77.4,71.1,28.97,WNW,292,0.0,0.0,81,0.00,,---,0.25,VWS V14.00,2013-07-10 00:56:00,
2013-07-09 21:02:00,77.4,71.4,28.97,WNW,292,0.0,0.0,82,0.00,,---,0.25,VWS V14.00,2013-07-10 01:02:00,
2013-07-09 21:08:00,77.2,71.3,28.97,WNW,292,0.0,0.0,82,0.00,,---,0.25,VWS V14.00,2013-07-10 01:08:00,
2013-07-09 21:14:00,77.0,71.4,28.97,WNW,292,0.0,2.2,83,0.00,,---,0.25,VWS V14.00,2013-07-10 01:14:00,
2013-07-09 21:20:00,76.8,70.9,28.97,West,270,0.0,2.2,82,0.00,,---,0.25,VWS V14.00,2013-07-10 01:20:00,
2013-07-09 21:26:00,76.8,70.9,28.97,SE,135,0.0,2.2,82,0.00,,---,0.25,VWS V14.00,2013-07-10 01:26:00,
2013-07-09 21:32:00,76.5,70.9,28.97,East,90,0.0,2.2,83,0.00,,---,0.25,VWS V14.00,2013-07-10 01:32:00,
2013-07-09 21:38:00,76.6,71.1,28.97,West,270,0.0,2.2,83,0.00,,---,0.25,VWS V14.00,2013-07-10 01:38:00,
2013-07-09 21:44:00,76.3,71.1,28.97,NW,315,0.0,2.2,84,0.00,,---,0.25,VWS V14.00,2013-07-10 01:44:00,
2013-07-09 21:50:00,76.3,71.1,28.97,NW,315,0.0,2.2,84,0.00,,---,0.25,VWS V14.00,2013-07-10 01:50:00,
2013-07-09 21:56:00,76.1,70.9,28.97,NW,315,0.0,2.2,84,0.00,,---,0.25,VWS V14.00,2013-07-10 01:56:00,
2013-07-09 22:02:00,75.9,71.1,28.97,WNW,292,0.0,0.0,85,0.00,,---,0.25,VWS V14.00,2013-07-10 02:02:00,
2013-07-09 22:08:00,75.9,70.7,28.97,WNW,292,0.0,0.0,84,0.00,,---,0.25,VWS V14.00,2013-07-10 02:08:00,
2013-07-09 22:14:00,75.9,71.1,28.97,WNW,292,0.0,0.0,85,0.00,,---,0.25,VWS V14.00,2013-07-10 02:14:00,
2013-07-09 22:21:00,75.9,70.7,28.97,WNW,292,0.0,0.0,84,0.00,,---,0.25,VWS V14.00,2013-07-10 02:21:00,
2013-07-09 22:27:00,75.7,70.9,28.97,WNW,292,0.0,0.0,85,0.00,,---,0.25,VWS V14.00,2013-07-10 02:27:00,
2013-07-09 22:33:00,75.6,71.1,28.97,WNW,292,0.0,0.0,86,0.00,,---,0.25,VWS V14.00,2013-07-10 02:33:00,
2013-07-09 22:39:00,75.6,71.1,28.97,WNW,292,0.0,0.0,86,0.00,,---,0.25,VWS V14.00,2013-07-10 02:39:00,
2013-07-09 22:45:00,75.6,71.1,28.97,WNW,292,0.0,0.0,86,0.00,,---,0.25,VWS V14.00,2013-07-10 02:45:00,
2013-07-09 22:51:00,75.4,70.9,28.97,NE,45,0.0,0.0,86,0.00,,---,0.25,VWS V14.00,2013-07-10 02:51:00,
2013-07-09 22:57:00,75.4,70.9,28.97,NE,45,0.0,0.0,86,0.00,,---,0.25,VWS V14.00,2013-07-10 02:57:00,
2013-07-09 23:03:00,75.2,70.7,28.97,NE,45,0.0,0.0,86,0.00,,---,0.25,VWS V14.00,2013-07-10 03:03:00,
2013-07-09 23:09:00,75.2,70.7,28.97,West,270,0.0,0.0,86,0.00,,---,0.25,VWS V14.00,2013-07-10 03:09:00,
2013-07-09 23:15:00,75.2,70.7,28.97,NW,315,0.0,0.0,86,0.00,,---,0.25,VWS V14.00,2013-07-10 03:15:00,
2013-07-09 23:21:00,75.0,70.9,28.97,ESE,112,0.0,0.0,87,0.00,,---,0.25,VWS V14.00,2013-07-10 03:21:00,
2013-07-09 23:27:00,75.0,70.9,28.97,East,90,0.0,0.0,87,0.00,,---,0.25,VWS V14.00,2013-07-10 03:27:00,
2013-07-09 23:33:00,75.0,71.2,29.00,East,90,0.0,0.0,88,0.00,,---,0.25,VWS V14.00,2013-07-10 03:33:00,
2013-07-09 23:39:00,74.8,71.1,29.00,SW,225,0.0,0.0,88,0.00,,---,0.25,VWS V14.00,2013-07-10 03:39:00,
2013-07-09 23:45:00,74.8,71.1,29.00,NW,315,0.0,0.9,88,0.00,,---,0.25,VWS V14.00,2013-07-10 03:45:00,
2013-07-09 23:51:00,74.8,71.1,29.00,West,270,0.0,0.9,88,0.00,,---,0.25,VWS V14.00,2013-07-10 03:51:00,
2013-07-09 23:57:00,74.8,71.1,29.00,NW,315,0.0,0.9,88,0.00,,---,0.25,VWS V14.00,2013-07-10 03:57:00,